Wind_Speed
14 14 12 12 14 13 12 13 12 10 9 10 10 11 12 12 13 12 12 11 11 11 10 10 10 11 11 12 12 13 13 12 11 10 10 9 8 8 7 7 8 9
15 13 13 15 15 14 13 14 15 14 12 12 11 11 12 12 12 12 12 11 11 11 11 11 11 11 11 11 12 13 13 12 12 11 10 10 9 8 8 8 9 9
14 13 15 15 14 13 13 14 15 15 14 14 13 12 12 12 12 12 12 11 11 11 11 11 11 11 11 11 12 13 13 12 12 11 11 10 10 9 9 9 10 10
14 15 16 14 12 12 12 13 15 16 15 15 14 13 13 13 12 12 12 11 11 11 11 12 12 12 11 11 11 12 12 12 11 11 11 11 10 11 10 11 11 11
15 15 14 12 12 12 12 13 14 15 15 15 14 14 14 13 12 12 12 11 11 11 11 11 11 11 11 11 11 11 10 10 10 11 11 11 11 12 12 12 12 12
14 13 11 10 11 11 12 13 14 15 16 16 15 15 14 13 12 12 12 12 11 11 11 11 11 11 11 11 10 10 10 9 10 10 11 11 12 12 13 13 14 14
13 10 8 9 11 12 13 14 14 15 17 17 17 16 14 13 12 10 11 12 11 11 11 11 11 11 11 11 11 10 10 10 10 10 11 12 12 13 13 14 14 15
11 8 8 10 12 12 14 15 15 15 16 18 18 16 15 13 11 9 11 12 12 11 11 11 11 10 10 11 11 11 11 11 11 11 12 12 13 13 14 15 15 16
8 7 8 11 11 12 13 13 14 14 15 18 18 16 15 13 9 9 12 13 11 11 11 11 11 10 10 11 11 12 12 12 12 12 12 13 14 14 15 16 17 17
6 6 8 10 10 11 11 10 10 10 12 16 17 15 14 12 8 10 12 12 10 10 9 10 10 10 10 10 11 12 12 12 12 12 13 13 14 15 16 17 17 18
5 6 8 8 8 8 8 7 7 8 10 14 15 13 13 10 8 10 11 10 8 7 7 8 8 9 10 10 10 11 11 12 12 12 13 13 14 15 16 17 18 19
7 8 8 6 5 6 6 6 6 7 9 12 13 12 11 9 9 10 10 9 7 6 6 6 7 7 8 9 9 10 10 11 11 12 13 14 14 15 16 17 18 19
8 10 9 8 7 6 6 5 6 7 9 11 11 11 9 9 9 9 9 8 6 6 6 6 6 7 7 7 8 8 9 10 10 11 13 14 14 15 15 16 18 19
10 11 11 10 9 8 7 6 6 7 9 10 11 10 9 9 9 9 8 7 6 6 6 7 7 7 7 7 8 8 9 9 10 11 12 13 14 14 15 17 18 19
11 12 12 11 9 8 8 7 6 5 7 9 9 9 9 9 8 8 7 7 6 6 7 7 8 8 8 8 8 9 10 10 10 11 12 13 13 14 15 16 18 19
11 11 10 9 9 8 7 7 6 5 5 6 6 7 6 6 5 5 5 6 6 7 7 7 8 8 8 9 9 10 10 11 12 12 13 14 14 15 16 17 17 18
11 11 10 9 8 7 7 6 6 5 5 4 4 4 3 3 3 3 3 3 4 4 4 5 5 5 6 7 8 9 9 10 11 12 13 14 15 15 17 18 18 19
10 10 10 9 8 8 8 7 7 6 5 5 5 4 4 3 3 3 3 2 2 1 1 1 1 2 3 4 5 6 7 8 9 10 11 12 12 14 16 17 17 18
7 8 8 8 7 7 7 7 6 6 5 5 5 4 4 4 3 3 3 3 2 2 2 2 3 3 4 4 5 6 7 8 9 10 11 11 11 13 14 15 16 17
4 5 5 6 5 5 5 5 5 5 5 4 4 4 4 4 4 4 4 4 4 4 4 5 6 6 6 7 8 9 10 11 12 12 13 14 14 15 16 16 17 17
4 4 5 5 5 5 5 5 5 5 5 5 5 5 5 5 5 5 5 5 6 6 6 7 8 8 9 9 10 11 12 13 14 15 15 16 17 17 18 19 19 20
6 6 6 6 6 6 7 7 7 7 7 6 6 6 6 5 5 5 6 6 7 7 8 8 9 9 10 11 11 12 13 14 15 15 16 17 18 18 19 20 21 21
6 6 6 6 7 7 8 8 8 8 8 7 7 7 7 6 6 6 7 7 8 9 10 10 11 11 11 12 12 13 14 14 15 15 16 17 18 18 19 20 21 22
6 6 6 6 6 7 7 7 7 7 7 7 8 8 8 7 7 7 8 8 9 10 10 11 11 12 12 12 12 13 13 14 14 15 16 17 18 18 19 20 21 22
5 6 7 7 8 8 8 8 8 8 8 8 8 8 8 8 8 8 8 9 9 10 11 11 11 12 12 12 12 13 13 14 15 16 17 18 19 20 21 22 22 23
6 7 7 8 9 10 10 10 10 10 10 10 10 10 10 10 10 10 9 10 10 11 11 11 12 12 13 13 13 14 15 15 16 17 18 19 20 21 22 23 24 25
Wind_Direction
238 232 232 241 241 241 245 242 240 242 241 237 237 237 236 230 224 219 215 215 219 221 222 222 222 220 218 217 217 217 217 216 216 217 219 219 217 219 225 238 252 260
241 236 234 239 241 241 245 243 238 239 243 240 233 233 236 237 235 230 221 216 218 223 225 226 225 223 223 223 223 222 221 218 217 218 222 224 223 225 227 234 244 252
240 237 237 242 246 247 248 247 240 236 239 240 233 228 229 233 238 239 234 225 220 221 225 226 226 224 224 225 227 227 225 222 219 220 225 229 231 235 236 238 243 249
239 236 239 243 250 254 254 252 246 241 240 240 236 230 228 229 234 240 241 235 226 222 223 226 226 225 225 226 228 230 230 229 227 225 228 233 239 242 244 245 247 251
237 233 237 243 249 255 257 252 246 241 239 238 238 236 234 232 234 238 241 241 235 228 225 226 228 228 228 228 230 233 235 236 236 236 236 239 243 247 250 253 255 257
239 233 234 243 252 257 258 254 247 239 236 235 237 240 238 236 235 238 241 243 239 234 229 228 230 231 232 234 235 237 238 239 240 242 244 245 248 251 254 256 259 261
245 241 240 248 254 258 259 257 251 244 239 235 235 237 236 234 234 237 244 245 240 236 233 230 229 233 237 239 241 243 242 242 243 243 244 246 249 253 256 258 260 262
249 251 252 253 254 255 259 258 253 248 241 232 229 231 231 231 233 241 250 248 239 234 232 231 231 234 240 241 244 247 246 245 248 248 247 247 248 251 255 258 261 263
250 251 254 256 256 257 260 258 250 247 238 224 221 226 228 226 227 240 250 245 236 231 232 233 235 238 243 245 246 249 249 249 252 255 255 254 253 253 255 258 261 264
244 245 252 259 258 254 256 254 247 245 232 218 215 220 222 219 219 234 243 242 235 233 234 238 241 243 246 249 249 249 250 251 255 261 263 263 263 261 259 261 263 266
231 230 240 250 249 243 244 243 242 241 227 214 211 214 215 210 213 229 238 240 237 236 238 243 247 247 249 253 252 251 253 253 255 261 264 264 265 266 266 266 267 268
211 207 212 216 211 216 220 215 214 218 217 213 211 211 208 201 208 225 234 237 238 239 241 245 248 250 252 256 256 257 260 260 259 263 266 265 265 266 267 269 269 270
193 190 191 189 186 192 193 192 197 201 205 209 211 210 206 201 208 220 228 233 238 242 248 250 251 251 254 259 261 263 265 265 264 265 265 265 265 265 267 269 270 271
182 180 184 185 182 181 181 181 186 193 199 204 207 209 209 210 212 218 223 227 231 238 246 251 252 252 254 255 258 260 261 263 263 263 263 263 264 265 267 269 270 271
179 181 184 185 184 182 181 181 178 180 188 193 198 204 209 212 212 216 220 221 224 229 236 242 247 250 253 255 256 257 259 260 261 262 265 267 267 268 268 268 270 272
164 171 175 179 183 184 184 185 184 181 180 184 191 199 207 214 214 218 225 228 232 237 239 243 246 248 252 255 257 259 261 262 262 262 265 267 268 270 270 268 269 271
142 147 151 154 160 164 166 168 168 168 168 169 177 183 188 195 193 198 211 219 228 236 242 249 254 255 258 262 265 268 270 270 269 268 269 271 272 274 274 272 271 272
132 134 135 137 138 141 143 143 144 148 150 151 156 155 154 157 161 165 171 176 188 201 218 263 285 287 287 289 291 291 291 288 286 284 282 282 281 279 278 278 280 282
135 135 134 136 136 136 139 141 144 149 151 153 158 160 163 168 175 185 192 197 206 214 224 243 256 266 275 283 288 291 292 291 291 291 291 291 288 284 283 285 287 287
149 147 144 145 147 150 154 159 165 170 176 182 187 195 202 209 216 228 238 244 248 254 260 265 270 274 277 281 284 285 286 286 287 288 289 290 290 290 290 290 290 289
180 178 175 173 174 177 180 185 190 196 200 207 214 220 226 232 241 250 258 265 269 273 276 278 281 283 284 286 287 287 288 290 292 293 294 295 295 295 295 295 294 294
202 201 200 200 199 199 200 203 206 210 212 216 220 225 230 236 244 253 263 272 279 282 282 282 283 284 285 286 286 287 289 291 293 293 294 295 295 295 295 295 295 295
218 221 220 217 214 211 211 213 215 218 222 226 231 235 240 245 251 258 265 271 276 279 280 281 282 283 283 284 285 287 288 290 290 291 291 292 292 293 293 293 293 293
235 240 242 240 236 232 229 228 228 230 233 237 241 246 250 255 259 264 269 273 275 277 279 281 282 283 282 282 283 285 285 286 286 287 288 289 290 290 290 290 290 290
244 248 251 254 254 253 251 250 248 247 248 251 254 258 261 264 267 270 273 277 280 282 283 284 285 285 284 284 283 284 284 285 286 287 288 288 289 289 289 289 288 288
237 243 248 253 257 259 260 261 261 262 263 265 268 272 274 275 275 276 278 280 283 285 286 287 287 287 287 286 287 286 287 288 288 289 289 289 289 289 289 288 287 286
Height
5900 5900 5902 5904 5904 5905 5906 5907 5907 5907 5908 5908 5909 5910 5910 5910 5910 5910 5910 5911 5912 5914 5915 5915 5915 5916 5916 5916 5917 5917 5917 5918 5918 5919 5920 5921 5922 5923 5923 5924 5924 5925
5899 5899 5901 5901 5901 5903 5905 5905 5905 5906 5907 5907 5907 5908 5909 5909 5910 5910 5910 5910 5910 5912 5913 5914 5915 5915 5915 5915 5916 5916 5916 5917 5917 5918 5919 5919 5920 5921 5922 5923 5924 5924
5899 5899 5899 5899 5900 5902 5903 5903 5904 5904 5905 5906 5906 5907 5907 5908 5909 5910 5910 5909 5909 5910 5912 5913 5914 5914 5914 5914 5915 5915 5915 5916 5916 5917 5917 5918 5919 5920 5921 5922 5923 5923
5897 5898 5898 5897 5898 5900 5901 5902 5903 5903 5904 5904 5905 5906 5906 5907 5908 5909 5909 5909 5909 5909 5910 5912 5912 5913 5913 5913 5913 5914 5914 5914 5915 5916 5916 5917 5918 5919 5920 5921 5921 5922
5895 5896 5897 5896 5896 5898 5899 5900 5901 5901 5902 5903 5904 5905 5905 5905 5906 5907 5908 5908 5908 5909 5909 5910 5911 5912 5912 5912 5912 5913 5913 5914 5914 5915 5915 5916 5917 5918 5919 5920 5920 5921
5895 5895 5894 5893 5894 5895 5897 5898 5898 5899 5900 5901 5902 5903 5903 5904 5905 5906 5907 5907 5907 5908 5908 5909 5910 5910 5911 5911 5911 5911 5912 5913 5913 5914 5914 5915 5916 5917 5917 5918 5919 5920
5892 5891 5891 5891 5892 5894 5895 5896 5897 5897 5898 5899 5900 5901 5902 5903 5904 5905 5906 5906 5906 5906 5907 5907 5908 5908 5909 5909 5910 5910 5911 5911 5912 5913 5913 5914 5915 5915 5916 5917 5917 5918
5889 5889 5889 5890 5891 5892 5893 5894 5895 5896 5896 5897 5898 5899 5900 5901 5901 5903 5905 5906 5905 5905 5905 5906 5906 5907 5908 5907 5908 5909 5909 5910 5911 5911 5912 5913 5913 5914 5914 5915 5915 5916
5887 5888 5888 5889 5889 5891 5891 5891 5892 5893 5893 5894 5896 5897 5898 5899 5899 5901 5904 5905 5904 5903 5904 5904 5905 5905 5906 5906 5906 5907 5908 5908 5909 5910 5911 5911 5912 5912 5912 5913 5913 5914
5886 5887 5887 5888 5888 5889 5889 5890 5890 5891 5891 5893 5894 5896 5897 5897 5897 5900 5903 5904 5902 5902 5902 5903 5903 5904 5904 5904 5905 5906 5906 5906 5907 5908 5909 5910 5910 5910 5911 5911 5911 5912
5885 5886 5886 5887 5887 5888 5888 5889 5889 5890 5891 5892 5893 5895 5896 5896 5897 5899 5901 5901 5901 5900 5900 5901 5902 5902 5903 5903 5904 5904 5905 5905 5905 5906 5907 5908 5908 5908 5909 5909 5909 5910
5884 5885 5886 5886 5886 5887 5888 5888 5888 5889 5890 5891 5893 5894 5894 5895 5895 5897 5899 5899 5899 5898 5899 5899 5900 5900 5901 5902 5902 5903 5903 5903 5904 5905 5905 5906 5906 5906 5907 5907 5907 5908
5883 5884 5885 5885 5886 5886 5887 5887 5888 5889 5889 5891 5892 5893 5893 5893 5895 5896 5898 5898 5897 5897 5897 5898 5899 5899 5900 5900 5900 5901 5901 5902 5902 5903 5903 5904 5904 5904 5905 5905 5905 5905
5882 5883 5884 5884 5885 5886 5886 5887 5887 5888 5889 5890 5891 5892 5892 5893 5894 5895 5896 5896 5895 5896 5896 5897 5898 5898 5898 5898 5899 5899 5899 5900 5900 5901 5901 5901 5902 5902 5902 5903 5903 5903
5881 5882 5883 5884 5884 5885 5886 5886 5887 5888 5889 5890 5890 5891 5892 5893 5893 5894 5894 5894 5894 5895 5896 5896 5897 5897 5897 5897 5897 5897 5897 5898 5899 5899 5899 5899 5899 5900 5900 5900 5900 5900
5882 5882 5883 5883 5884 5884 5885 5886 5887 5887 5888 5889 5890 5891 5891 5892 5891 5892 5892 5893 5893 5894 5895 5895 5896 5896 5896 5896 5896 5896 5896 5897 5897 5898 5897 5898 5898 5898 5898 5898 5898 5898
5882 5882 5883 5883 5884 5884 5885 5885 5886 5887 5888 5888 5889 5889 5890 5890 5890 5891 5892 5892 5893 5894 5894 5895 5895 5895 5895 5895 5895 5895 5895 5896 5896 5896 5897 5897 5897 5897 5897 5897 5897 5896
5882 5883 5883 5884 5884 5885 5885 5886 5886 5887 5887 5888 5889 5889 5889 5890 5891 5891 5892 5892 5893 5893 5894 5894 5894 5894 5895 5895 5895 5895 5895 5895 5895 5895 5895 5896 5896 5896 5896 5896 5895 5895
5882 5883 5883 5884 5885 5885 5886 5886 5887 5887 5888 5888 5889 5889 5890 5890 5891 5891 5892 5892 5893 5893 5893 5893 5893 5894 5894 5894 5894 5894 5894 5894 5894 5894 5894 5895 5895 5895 5895 5894 5894 5894
5882 5883 5883 5884 5885 5885 5886 5886 5887 5887 5888 5888 5889 5889 5890 5890 5891 5891 5892 5892 5892 5892 5892 5892 5892 5892 5892 5892 5893 5892 5892 5892 5892 5892 5892 5892 5893 5893 5893 5892 5892 5892
5882 5882 5883 5884 5884 5885 5885 5886 5886 5887 5887 5888 5888 5889 5889 5889 5890 5890 5890 5891 5891 5891 5891 5891 5891 5891 5891 5891 5891 5891 5891 5890 5890 5890 5890 5890 5890 5890 5890 5890 5890 5889
5881 5881 5882 5883 5883 5884 5884 5884 5885 5885 5886 5886 5887 5887 5887 5888 5888 5888 5888 5888 5889 5889 5889 5889 5889 5889 5889 5889 5889 5889 5889 5889 5889 5888 5888 5888 5888 5888 5887 5887 5887 5887
5880 5880 5881 5881 5882 5882 5883 5883 5884 5884 5884 5885 5885 5885 5886 5886 5886 5886 5886 5886 5887 5887 5887 5887 5887 5887 5888 5887 5887 5887 5887 5887 5887 5886 5886 5886 5885 5885 5884 5884 5883 5883
5879 5879 5880 5880 5881 5881 5881 5882 5882 5882 5883 5883 5883 5884 5884 5884 5884 5884 5884 5885 5885 5885 5885 5885 5885 5886 5886 5886 5886 5886 5885 5885 5885 5884 5884 5883 5883 5882 5882 5881 5880 5880
5877 5877 5878 5878 5879 5879 5880 5880 5880 5881 5881 5881 5882 5882 5882 5882 5882 5882 5882 5882 5883 5883 5883 5883 5883 5883 5883 5883 5883 5883 5883 5883 5882 5882 5882 5881 5880 5880 5879 5878 5878 5877
5875 5875 5875 5875 5876 5876 5877 5877 5878 5878 5879 5879 5879 5880 5880 5880 5880 5880 5880 5880 5880 5880 5880 5881 5881 5881 5881 5881 5881 5881 5880 5880 5880 5880 5879 5879 5878 5878 5877 5876 5875 5874